Location: Unspecified
(0.0000°N, 0.0000°E)
Time: 12:33:56
(UTC+00:00)

Tiangong - Pass Details

Date: 28 November 2021
Orbit: 379 x 385 km, 41.5° (Epoch: 08 December)

Event Time Altitude Azimuth Distance (km) Brightness Sun altitude
Rises 19:16:43 0° 224° (SW) 2,253 6.1 -20.5°
Reaches altitude 10° 19:18:48 10° 222° (SW) 1,398 4.8 -21.0°
Enters shadow 19:21:15 50° 210° (SSW) 494 1.8 -21.6°
